| time (UTC) | temp F | wind direction | speed MPH | gust MPH | rain 1hr in | rain 24hr in | rain mn in | humidity % | barometer mb |
| 20260507062500 | 50 | 289 | 8.0 | 19.0 | 0.00 | 0.00 | 0.00 | 74 | 1016.2 |
| 20260507061954 | 50 | 288 | 8.0 | 19.0 | 0.00 | 0.00 | 0.00 | 74 | 1016.2 |
| 20260507061448 | 50 | 291 | 8.0 | 16.0 | 0.00 | 0.00 | 0.00 | 74 | 1016.2 |
| 20260507060942 | 50 | 290 | 9.0 | 13.0 | 0.00 | 0.00 | 0.00 | 74 | 1016.2 |
| 20260507060436 | 50 | 292 | 8.0 | 16.0 | 0.00 | 0.00 | 0.00 | 74 | 1016.2 |
| 20260507055930 | 50 | 284 | 8.0 | 18.0 | 0.00 | 0.00 | 0.00 | 74 | 1016.2 |
| 20260507055424 | 50 | 288 | 11.0 | 18.0 | 0.00 | 0.00 | 0.00 | 74 | 1016.2 |
| 20260507054918 | 50 | 286 | 10.0 | 17.0 | 0.00 | 0.00 | 0.00 | 74 | 1016.2 |
| 20260507054412 | 50 | 284 | 11.0 | 17.0 | 0.00 | 0.00 | 0.00 | 74 | 1016.3 |
| 20260507053906 | 50 | 290 | 12.0 | 19.0 | 0.00 | 0.00 | 0.00 | 74 | 1016.2 |
| 20260507053400 | 50 | 289 | 12.0 | 19.0 | 0.00 | 0.00 | 0.00 | 74 | 1016.1 |
| 20260507052854 | 50 | 292 | 10.0 | 19.0 | 0.00 | 0.00 | 0.00 | 74 | 1016.1 |
| 20260507052348 | 50 | 288 | 8.0 | 17.0 | 0.00 | 0.00 | 0.00 | 74 | 1016.0 |
| 20260507051842 | 50 | 291 | 5.0 | 15.0 | 0.00 | 0.00 | 0.00 | 74 | 1016.2 |
| 20260507051336 | 50 | 290 | 5.0 | 20.0 | 0.00 | 0.00 | 0.00 | 74 | 1016.1 |
| 20260507050830 | 50 | 291 | 12.0 | 21.0 | 0.00 | 0.00 | 0.00 | 74 | 1016.2 |
| 20260507050324 | 50 | 290 | 9.0 | 21.0 | 0.00 | 0.00 | 0.00 | 74 | 1016.2 |
| 20260507045818 | 50 | 293 | 9.0 | 20.0 | 0.00 | 0.00 | 0.00 | 74 | 1016.1 |
| 20260507045312 | 50 | 290 | 11.0 | 21.0 | 0.00 | 0.00 | 0.00 | 74 | 1016.1 |
| 20260507044806 | 50 | 292 | 12.0 | 22.0 | 0.00 | 0.00 | 0.00 | 74 | 1016.1 |
| 20260507044300 | 50 | 290 | 12.0 | 19.0 | 0.00 | 0.00 | 0.00 | 74 | 1016.0 |
| 20260507043754 | 50 | 285 | 11.0 | 19.0 | 0.00 | 0.00 | 0.00 | 74 | 1016.1 |
| 20260507043248 | 50 | 286 | 11.0 | 20.0 | 0.00 | 0.00 | 0.00 | 74 | 1016.2 |
| 20260507042742 | 50 | 289 | 14.0 | 23.0 | 0.00 | 0.00 | 0.00 | 74 | 1016.0 |
| 20260507042236 | 50 | 285 | 13.0 | 23.0 | 0.00 | 0.00 | 0.00 | 74 | 1016.0 |
| 20260507041730 | 50 | 283 | 9.0 | 21.0 | 0.00 | 0.00 | 0.00 | 74 | 1016.0 |
| 20260507041224 | 50 | 285 | 13.0 | 21.0 | 0.00 | 0.00 | 0.00 | 75 | 1015.9 |
| 20260507040718 | 50 | 289 | 15.0 | 21.0 | 0.00 | 0.00 | 0.00 | 75 | 1015.9 |
| 20260507040212 | 50 | 286 | 15.0 | 23.0 | 0.00 | 0.00 | 0.00 | 75 | 1015.8 |
| 20260507035706 | 50 | 285 | 13.0 | 23.0 | 0.00 | 0.00 | 0.00 | 75 | 1015.9 |
| 20260507035200 | 50 | 283 | 10.0 | 23.0 | 0.00 | 0.00 | 0.00 | 75 | 1015.9 |
| 20260507034654 | 50 | 282 | 10.0 | 23.0 | 0.00 | 0.00 | 0.00 | 75 | 1015.8 |
| 20260507034148 | 50 | 286 | 16.0 | 20.0 | 0.00 | 0.00 | 0.00 | 75 | 1015.7 |
| 20260507033642 | 50 | 286 | 15.0 | 21.0 | 0.00 | 0.00 | 0.00 | 75 | 1015.7 |
| 20260507033136 | 50 | 286 | 10.0 | 21.0 | 0.00 | 0.00 | 0.00 | 75 | 1015.8 |
| 20260507032630 | 50 | 284 | 11.0 | 20.0 | 0.00 | 0.00 | 0.00 | 75 | 1015.7 |
| 20260507032124 | 50 | 286 | 13.0 | 26.0 | 0.00 | 0.00 | 0.00 | 75 | 1015.7 |
| 20260507031618 | 50 | 284 | 16.0 | 25.0 | 0.00 | 0.00 | 0.00 | 75 | 1015.5 |
| 20260507031112 | 50 | 286 | 15.0 | 25.0 | 0.00 | 0.00 | 0.00 | 75 | 1015.5 |
| 20260507030606 | 50 | 285 | 15.0 | 23.0 | 0.00 | 0.00 | 0.00 | 75 | 1015.4 |
| 20260507030100 | 51 | 282 | 12.0 | 21.0 | 0.00 | 0.00 | 0.00 | 75 | 1015.5 |
| 20260507025554 | 51 | 284 | 14.0 | 22.0 | 0.00 | 0.00 | 0.00 | 75 | 1015.5 |
| 20260507025048 | 51 | 286 | 16.0 | 22.0 | 0.00 | 0.00 | 0.00 | 75 | 1015.5 |
| 20260507024542 | 50 | 287 | 16.0 | 19.0 | 0.00 | 0.00 | 0.00 | 76 | 1015.6 |
| 20260507024036 | 51 | 286 | 18.0 | 19.0 | 0.00 | 0.00 | 0.00 | 76 | 1015.4 |
| 20260507023530 | 51 | 283 | 11.0 | 19.0 | 0.00 | 0.00 | 0.00 | 76 | 1015.4 |
| 20260507023024 | 51 | 280 | 14.0 | 23.0 | 0.00 | 0.00 | 0.00 | 76 | 1015.4 |
| 20260507022518 | 51 | 283 | 13.0 | 23.0 | 0.00 | 0.00 | 0.00 | 76 | 1015.5 |
| 20260507022012 | 51 | 282 | 14.0 | 23.0 | 0.00 | 0.00 | 0.00 | 76 | 1015.4 |
| 20260507021506 | 51 | 280 | 15.0 | 23.0 | 0.00 | 0.00 | 0.00 | 76 | 1015.3 |
| 20260507021000 | 51 | 278 | 11.0 | 21.0 | 0.00 | 0.00 | 0.00 | 76 | 1015.3 |
| 20260507020454 | 51 | 281 | 12.0 | 21.0 | 0.00 | 0.00 | 0.00 | 76 | 1015.4 |
| 20260507015948 | 52 | 282 | 14.0 | 26.0 | 0.00 | 0.00 | 0.00 | 76 | 1015.3 |
| 20260507015442 | 52 | 284 | 10.0 | 26.0 | 0.00 | 0.00 | 0.00 | 76 | 1015.3 |
| 20260507014936 | 52 | 284 | 14.0 | 23.0 | 0.00 | 0.00 | 0.00 | 76 | 1015.4 |
| 20260507014430 | 52 | 283 | 13.0 | 24.0 | 0.00 | 0.00 | 0.00 | 76 | 1015.4 |
| 20260507013924 | 52 | 283 | 15.0 | 24.0 | 0.00 | 0.00 | 0.00 | 76 | 1015.3 |
| 20260507013418 | 52 | 281 | 12.0 | 26.0 | 0.00 | 0.00 | 0.00 | 76 | 1015.3 |
| 20260507012912 | 52 | 280 | 12.0 | 26.0 | 0.00 | 0.00 | 0.00 | 76 | 1015.3 |
| 20260507012406 | 52 | 283 | 14.0 | 23.0 | 0.00 | 0.00 | 0.00 | 76 | 1015.3 |
| 20260507011900 | 52 | 284 | 16.0 | 28.0 | 0.00 | 0.00 | 0.00 | 76 | 1015.3 |
| 20260507011354 | 52 | 281 | 15.0 | 28.0 | 0.00 | 0.00 | 0.00 | 76 | 1015.3 |
| 20260507010848 | 52 | 280 | 16.0 | 23.0 | 0.00 | 0.00 | 0.00 | 76 | 1015.3 |
| 20260507010342 | 53 | 279 | 12.0 | 26.0 | 0.00 | 0.00 | 0.00 | 76 | 1015.4 |
| 20260507005836 | 53 | 280 | 12.0 | 26.0 | 0.00 | 0.00 | 0.00 | 76 | 1015.4 |
| 20260507005330 | 53 | 281 | 12.0 | 22.0 | 0.00 | 0.00 | 0.00 | 76 | 1015.3 |
| 20260507004824 | 53 | 274 | 8.0 | 25.0 | 0.00 | 0.00 | 0.00 | 76 | 1015.4 |
| 20260507004318 | 53 | 280 | 12.0 | 25.0 | 0.00 | 0.00 | 0.00 | 76 | 1015.4 |
| 20260507003812 | 54 | 272 | 11.0 | 25.0 | 0.00 | 0.00 | 0.00 | 76 | 1015.4 |
| 20260507003306 | 54 | 272 | 9.0 | 31.0 | 0.00 | 0.00 | 0.00 | 76 | 1015.4 |
| 20260507002800 | 54 | 277 | 11.0 | 31.0 | 0.00 | 0.00 | 0.00 | 76 | 1015.2 |
| 20260507002254 | 54 | 273 | 12.0 | 23.0 | 0.00 | 0.00 | 0.00 | 76 | 1015.2 |
| 20260507001748 | 55 | 268 | 8.0 | 22.0 | 0.00 | 0.00 | 0.00 | 76 | 1015.2 |
| 20260507001242 | 55 | 265 | 7.0 | 27.0 | 0.00 | 0.00 | 0.00 | 76 | 1015.2 |
| 20260507000736 | 55 | 273 | 12.0 | 27.0 | 0.00 | 0.00 | 0.00 | 76 | 1015.0 |
| 20260507000230 | 55 | 274 | 11.0 | 22.0 | 0.00 | 0.00 | 0.00 | 76 | 1015.2 |
| 20260506235724 | 56 | 269 | 9.0 | 24.0 | 0.00 | 0.00 | 0.00 | 76 | 1015.2 |
| 20260506235218 | 56 | 270 | 9.0 | 24.0 | 0.00 | 0.00 | 0.00 | 76 | 1015.2 |
| 20260506234712 | 56 | 277 | 13.0 | 29.0 | 0.00 | 0.00 | 0.00 | 76 | 1015.2 |
| 20260506234206 | 56 | 279 | 14.0 | 29.0 | 0.00 | 0.00 | 0.00 | 76 | 1015.1 |
| 20260506233700 | 57 | 272 | 12.0 | 24.0 | 0.00 | 0.00 | 0.00 | 76 | 1015.2 |
| 20260506233154 | 57 | 267 | 9.0 | 24.0 | 0.00 | 0.00 | 0.00 | 76 | 1015.1 |
| 20260506232648 | 58 | 274 | 10.0 | 32.0 | 0.00 | 0.00 | 0.00 | 76 | 1015.1 |
| 20260506232142 | 59 | 267 | 7.0 | 32.0 | 0.00 | 0.00 | 0.00 | 76 | 1015.0 |
| 20260506231636 | 59 | 272 | 10.0 | 23.0 | 0.00 | 0.00 | 0.00 | 76 | 1015.2 |
| 20260506231130 | 59 | 268 | 8.0 | 23.0 | 0.00 | 0.00 | 0.00 | 76 | 1015.4 |
| 20260506230623 | 58 | 256 | 7.0 | 26.0 | 0.00 | 0.00 | 0.00 | 76 | 1015.1 |
| 20260506230117 | 58 | 268 | 10.0 | 26.0 | 0.00 | 0.00 | 0.00 | 76 | 1015.2 |
| 20260506225612 | 59 | 261 | 8.0 | 27.0 | 0.00 | 0.00 | 0.00 | 76 | 1015.2 |
| 20260506225105 | 59 | 266 | 10.0 | 27.0 | 0.00 | 0.00 | 0.00 | 76 | 1015.1 |
| 20260506224559 | 60 | 263 | 9.0 | 21.0 | 0.00 | 0.00 | 0.00 | 76 | 1015.3 |
| 20260506224053 | 60 | 260 | 7.0 | 25.0 | 0.00 | 0.00 | 0.00 | 76 | 1015.3 |
| 20260506223547 | 60 | 261 | 8.0 | 25.0 | 0.00 | 0.00 | 0.00 | 76 | 1015.4 |
| 20260506223041 | 59 | 258 | 7.0 | 25.0 | 0.00 | 0.00 | 0.00 | 76 | 1015.4 |
| 20260506222535 | 59 | 259 | 7.0 | 25.0 | 0.00 | 0.00 | 0.00 | 76 | 1015.4 |
| 20260506222030 | 59 | 268 | 10.0 | 28.0 | 0.00 | 0.00 | 0.00 | 76 | 1015.6 |
| 20260506221523 | 59 | 264 | 9.0 | 28.0 | 0.00 | 0.00 | 0.00 | 76 | 1015.6 |
| 20260506221017 | 60 | 267 | 11.0 | 23.0 | 0.00 | 0.00 | 0.00 | 76 | 1015.6 |
| 20260506220512 | 61 | 264 | 8.0 | 26.0 | 0.00 | 0.00 | 0.00 | 76 | 1015.7 |
| 20260506220006 | 60 | 262 | 10.0 | 26.0 | 0.00 | 0.00 | 0.00 | 76 | 1015.8 |
| 20260506215459 | 60 | 274 | 9.0 | 25.0 | 0.00 | 0.00 | 0.00 | 76 | 1015.9 |
| 20260506214953 | 61 | 256 | 6.0 | 29.0 | 0.00 | 0.00 | 0.00 | 76 | 1015.9 |
| 20260506214448 | 60 | 263 | 8.0 | 29.0 | 0.00 | 0.00 | 0.00 | 76 | 1016.1 |
| 20260506213942 | 60 | 257 | 9.0 | 22.0 | 0.00 | 0.00 | 0.00 | 76 | 1016.0 |
| 20260506213435 | 61 | 268 | 8.0 | 23.0 | 0.00 | 0.00 | 0.00 | 76 | 1016.0 |
| 20260506212929 | 61 | 266 | 8.0 | 24.0 | 0.00 | 0.00 | 0.00 | 76 | 1015.9 |
| 20260506212423 | 60 | 267 | 9.0 | 25.0 | 0.00 | 0.00 | 0.00 | 76 | 1015.9 |
| 20260506211917 | 61 | 257 | 7.0 | 25.0 | 0.00 | 0.00 | 0.00 | 76 | 1016.0 |
| 20260506211411 | 61 | 220 | 4.0 | 23.0 | 0.00 | 0.00 | 0.00 | 76 | 1015.9 |
| 20260506210905 | 61 | 233 | 4.0 | 25.0 | 0.00 | 0.00 | 0.00 | 76 | 1016.0 |
| 20260506210359 | 61 | 277 | 13.0 | 25.0 | 0.00 | 0.00 | 0.00 | 76 | 1015.9 |
| 20260506205853 | 60 | 248 | 6.0 | 23.0 | 0.00 | 0.00 | 0.00 | 76 | 1015.9 |
| 20260506205347 | 60 | 269 | 10.0 | 25.0 | 0.00 | 0.00 | 0.00 | 76 | 1015.8 |
| 20260506204841 | 61 | 265 | 8.0 | 25.0 | 0.00 | 0.00 | 0.00 | 76 | 1016.0 |
| 20260506204335 | 61 | 268 | 8.0 | 25.0 | 0.00 | 0.00 | 0.00 | 76 | 1016.0 |
| 20260506203829 | 60 | 257 | 6.0 | 25.0 | 0.00 | 0.00 | 0.00 | 76 | 1016.0 |
| 20260506203323 | 61 | 182 | 2.0 | 22.0 | 0.00 | 0.00 | 0.00 | 76 | 1016.0 |
| 20260506202817 | 60 | 217 | 4.0 | 21.0 | 0.00 | 0.00 | 0.00 | 76 | 1016.1 |
| 20260506202311 | 60 | 216 | 5.0 | 19.0 | 0.00 | 0.00 | 0.00 | 76 | 1016.1 |
| 20260506201805 | 60 | 255 | 5.0 | 19.0 | 0.00 | 0.00 | 0.00 | 76 | 1016.1 |
| 20260506201259 | 60 | 130 | 2.0 | 16.0 | 0.00 | 0.00 | 0.00 | 76 | 1016.0 |
| 20260506200753 | 61 | 158 | 2.0 | 16.0 | 0.00 | 0.00 | 0.00 | 76 | 1016.1 |
| 20260506200247 | 61 | 200 | 2.0 | 19.0 | 0.00 | 0.00 | 0.00 | 76 | 1016.2 |
| 20260506195741 | 60 | 240 | 3.0 | 19.0 | 0.00 | 0.00 | 0.00 | 76 | 1016.1 |
| 20260506195235 | 61 | 179 | 2.0 | 19.0 | 0.00 | 0.00 | 0.00 | 76 | 1016.1 |
| 20260506194730 | 61 | 252 | 5.0 | 19.0 | 0.00 | 0.00 | 0.00 | 76 | 1016.1 |
| 20260506194223 | 61 | 128 | 1.0 | 14.0 | 0.00 | 0.00 | 0.00 | 76 | 1016.2 |
| 20260506193717 | 61 | 245 | 4.0 | 14.0 | 0.00 | 0.00 | 0.00 | 76 | 1016.1 |
| 20260506193211 | 61 | 116 | 1.0 | 13.0 | 0.00 | 0.00 | 0.00 | 76 | 1016.1 |
| 20260506192705 | 60 | 198 | 2.0 | 17.0 | 0.00 | 0.00 | 0.00 | 76 | 1016.2 |
| 20260506192159 | 61 | 197 | 2.0 | 17.0 | 0.00 | 0.00 | 0.00 | 76 | 1016.2 |
| 20260506191653 | 62 | 172 | 2.0 | 17.0 | 0.00 | 0.00 | 0.00 | 76 | 1016.3 |
| 20260506191147 | 62 | 150 | 1.0 | 13.0 | 0.00 | 0.00 | 0.00 | 76 | 1016.3 |
| 20260506190641 | 62 | 161 | 2.0 | 16.0 | 0.00 | 0.00 | 0.00 | 76 | 1016.3 |
| 20260506190135 | 61 | 217 | 2.0 | 16.0 | 0.00 | 0.00 | 0.00 | 75 | 1016.4 |
| 20260506185629 | 62 | 239 | 2.0 | 14.0 | 0.00 | 0.00 | 0.00 | 75 | 1016.5 |
| 20260506185123 | 62 | 216 | 2.0 | 16.0 | 0.00 | 0.00 | 0.00 | 75 | 1016.4 |
| 20260506184617 | 62 | 244 | 3.0 | 18.0 | 0.00 | 0.00 | 0.00 | 75 | 1016.4 |
| 20260506184111 | 61 | 245 | 4.0 | 18.0 | 0.00 | 0.00 | 0.00 | 75 | 1016.6 |
| 20260506183605 | 62 | 262 | 5.0 | 17.0 | 0.00 | 0.00 | 0.00 | 75 | 1016.5 |
| 20260506183100 | 63 | 261 | 4.0 | 17.0 | 0.00 | 0.00 | 0.00 | 75 | 1016.6 |
| 20260506182553 | 62 | 270 | 6.0 | 17.0 | 0.00 | 0.00 | 0.00 | 75 | 1016.5 |
| 20260506182047 | 62 | 254 | 3.0 | 15.0 | 0.00 | 0.00 | 0.00 | 75 | 1016.6 |
| 20260506181541 | 63 | 277 | 6.0 | 15.0 | 0.00 | 0.00 | 0.00 | 75 | 1016.7 |
| 20260506181035 | 63 | 241 | 2.0 | 12.0 | 0.00 | 0.00 | 0.00 | 75 | 1016.7 |
| 20260506180529 | 63 | 274 | 5.0 | 12.0 | 0.00 | 0.00 | 0.00 | 75 | 1016.8 |
| 20260506180023 | 63 | 278 | 5.0 | 13.0 | 0.00 | 0.00 | 0.00 | 75 | 1016.8 |
| 20260506175517 | 64 | 278 | 4.0 | 11.0 | 0.00 | 0.00 | 0.00 | 75 | 1016.7 |
| 20260506175011 | 64 | 209 | 3.0 | 13.0 | 0.00 | 0.00 | 0.00 | 75 | 1016.8 |
| 20260506174505 | 64 | 266 | 5.0 | 13.0 | 0.00 | 0.00 | 0.00 | 75 | 1016.7 |
| 20260506173959 | 66 | 265 | 2.0 | 0.0 | 0.00 | 0.00 | 0.00 | 75 | 1016.8 |
| 20260506173453 | 64 | 280 | 2.0 | 0.0 | 0.00 | 0.00 | 0.00 | 75 | 1016.8 |
| 20260506172947 | 61 | 309 | 3.0 | 0.0 | 0.00 | 0.00 | 0.00 | 75 | 1016.7 |
| 20260506172441 | 62 | 313 | 5.0 | 0.0 | 0.00 | 0.00 | 0.00 | 75 | 1016.7 |
| 20260506171935 | 63 | 325 | 1.0 | 0.0 | 0.00 | 0.00 | 0.00 | 74 | 1016.7 |
| 20260506171429 | 63 | 278 | 3.0 | 14.0 | 0.00 | 0.00 | 0.00 | 74 | 1016.7 |
| 20260506170923 | 61 | 261 | 2.0 | 14.0 | 0.00 | 0.00 | 0.00 | 74 | 1016.7 |
| 20260506170417 | 60 | 277 | 6.0 | 14.0 | 0.00 | 0.00 | 0.00 | 74 | 1016.6 |
| 20260506165911 | 60 | 279 | 8.0 | 16.0 | 0.00 | 0.00 | 0.00 | 74 | 1016.6 |
| 20260506165405 | 59 | 283 | 5.0 | 16.0 | 0.00 | 0.00 | 0.00 | 74 | 1016.7 |
| 20260506164859 | 60 | 293 | 4.0 | 13.0 | 0.00 | 0.00 | 0.00 | 74 | 1016.6 |
| 20260506164353 | 60 | 279 | 5.0 | 14.0 | 0.00 | 0.00 | 0.00 | 74 | 1016.6 |
| 20260506163847 | 60 | 278 | 6.0 | 14.0 | 0.00 | 0.00 | 0.00 | 74 | 1016.5 |
| 20260506163341 | 60 | 272 | 3.0 | 15.0 | 0.00 | 0.00 | 0.00 | 74 | 1016.5 |
| 20260506162835 | 59 | 277 | 8.0 | 15.0 | 0.00 | 0.00 | 0.00 | 74 | 1016.5 |
| 20260506162329 | 60 | 277 | 4.0 | 0.0 | 0.00 | 0.00 | 0.00 | 74 | 1016.5 |
| 20260506161823 | 60 | 285 | 3.0 | 12.0 | 0.00 | 0.00 | 0.00 | 74 | 1016.5 |
| 20260506161317 | 59 | 277 | 4.0 | 12.0 | 0.00 | 0.00 | 0.00 | 74 | 1016.5 |
| 20260506160811 | 59 | 274 | 2.0 | 0.0 | 0.00 | 0.00 | 0.00 | 74 | 1016.5 |
| 20260506160305 | 58 | 291 | 3.0 | 12.0 | 0.00 | 0.00 | 0.00 | 74 | 1016.4 |
| 20260506155759 | 56 | 290 | 5.0 | 12.0 | 0.00 | 0.00 | 0.00 | 74 | 1016.5 |
| 20260506155253 | 56 | 309 | 3.0 | 14.0 | 0.00 | 0.00 | 0.00 | 74 | 1016.5 |
| 20260506154747 | 55 | 306 | 3.0 | 14.0 | 0.00 | 0.00 | 0.00 | 74 | 1016.4 |
| 20260506154241 | 56 | 289 | 6.0 | 11.0 | 0.00 | 0.00 | 0.00 | 73 | 1016.4 |
| 20260506153735 | 56 | 302 | 5.0 | 0.0 | 0.00 | 0.00 | 0.00 | 73 | 1016.4 |
| 20260506153229 | 56 | 302 | 2.0 | 0.0 | 0.00 | 0.00 | 0.00 | 73 | 1016.4 |
| 20260506152723 | 57 | 326 | 1.0 | 0.0 | 0.00 | 0.00 | 0.00 | 73 | 1016.5 |
| 20260506152217 | 56 | 319 | 1.0 | 0.0 | 0.00 | 0.00 | 0.00 | 73 | 1016.5 |
| 20260506151711 | 55 | 316 | 4.0 | 0.0 | 0.00 | 0.00 | 0.00 | 73 | 1016.4 |
| 20260506151205 | 55 | 311 | 4.0 | 0.0 | 0.00 | 0.00 | 0.00 | 73 | 1016.5 |
| 20260506150659 | 55 | 322 | 3.0 | 0.0 | 0.00 | 0.00 | 0.00 | 72 | 1016.5 |
| 20260506150153 | 55 | 313 | 1.0 | 0.0 | 0.00 | 0.00 | 0.00 | 72 | 1016.4 |
| 20260506145647 | 54 | 313 | 2.0 | 0.0 | 0.00 | 0.00 | 0.00 | 72 | 1016.4 |
| 20260506145141 | 54 | 327 | 3.0 | 0.0 | 0.00 | 0.00 | 0.00 | 72 | 1016.4 |
| 20260506144635 | 54 | 320 | 3.0 | 11.0 | 0.00 | 0.00 | 0.00 | 72 | 1016.4 |
| 20260506144129 | 53 | 317 | 5.0 | 11.0 | 0.00 | 0.00 | 0.00 | 72 | 1016.4 |
| 20260506143623 | 53 | 325 | 4.0 | 11.0 | 0.00 | 0.00 | 0.00 | 72 | 1016.4 |
| 20260506143117 | 52 | 325 | 4.0 | 11.0 | 0.00 | 0.00 | 0.00 | 72 | 1016.4 |
| 20260506142611 | 52 | 316 | 6.0 | 11.0 | 0.00 | 0.00 | 0.00 | 72 | 1016.3 |
| 20260506142105 | 52 | 319 | 6.0 | 11.0 | 0.00 | 0.00 | 0.00 | 72 | 1016.3 |
| 20260506141559 | 52 | 318 | 5.0 | 10.0 | 0.00 | 0.00 | 0.00 | 72 | 1016.3 |
| 20260506141053 | 52 | 320 | 4.0 | 0.0 | 0.00 | 0.00 | 0.00 | 71 | 1016.3 |
| 20260506140547 | 52 | 315 | 3.0 | 0.0 | 0.00 | 0.00 | 0.00 | 71 | 1016.1 |
| 20260506140041 | 51 | 306 | 3.0 | 0.0 | 0.00 | 0.00 | 0.00 | 71 | 1016.1 |
| 20260506135535 | 51 | 301 | 2.0 | 0.0 | 0.00 | 0.00 | 0.00 | 71 | 1016.0 |
| 20260506135029 | 50 | 298 | 4.0 | 0.0 | 0.00 | 0.00 | 0.00 | 71 | 1016.0 |
| 20260506134523 | 50 | 297 | 3.0 | 0.0 | 0.00 | 0.00 | 0.00 | 71 | 1015.9 |
| 20260506134017 | 50 | 310 | 3.0 | 0.0 | 0.00 | 0.00 | 0.00 | 71 | 1015.9 |
| 20260506133511 | 50 | 315 | 2.0 | 0.0 | 0.00 | 0.00 | 0.00 | 71 | 1015.8 |
| 20260506133005 | 49 | 322 | 4.0 | 0.0 | 0.00 | 0.00 | 0.00 | 71 | 1015.8 |
| 20260506132459 | 49 | 324 | 3.0 | 0.0 | 0.00 | 0.00 | 0.00 | 71 | 1015.7 |
| 20260506131953 | 49 | 322 | 3.0 | 0.0 | 0.00 | 0.00 | 0.00 | 71 | 1015.8 |
| 20260506131447 | 48 | 315 | 3.0 | 0.0 | 0.00 | 0.00 | 0.00 | 71 | 1015.7 |
| 20260506130941 | 48 | 294 | 1.0 | 0.0 | 0.00 | 0.00 | 0.00 | 71 | 1015.7 |
| 20260506130435 | 48 | 309 | 2.0 | 0.0 | 0.00 | 0.00 | 0.00 | 71 | 1015.7 |
| 20260506125929 | 48 | 313 | 3.0 | 0.0 | 0.00 | 0.00 | 0.00 | 71 | 1015.7 |
| 20260506125423 | 48 | 310 | 4.0 | 0.0 | 0.00 | 0.00 | 0.00 | 71 | 1015.7 |
| 20260506124917 | 48 | 300 | 4.0 | 0.0 | 0.00 | 0.00 | 0.00 | 71 | 1015.7 |
| 20260506124411 | 48 | 306 | 2.0 | 0.0 | 0.00 | 0.00 | 0.00 | 71 | 1015.8 |
| 20260506123905 | 48 | 297 | 4.0 | 0.0 | 0.00 | 0.00 | 0.00 | 71 | 1015.8 |
| 20260506123359 | 48 | 299 | 3.0 | 0.0 | 0.00 | 0.00 | 0.00 | 71 | 1015.8 |
| 20260506122853 | 47 | 305 | 2.0 | 0.0 | 0.00 | 0.00 | 0.00 | 71 | 1015.7 |
| 20260506122347 | 47 | 287 | 0.0 | 0.0 | 0.00 | 0.00 | 0.00 | 71 | 1015.7 |
| 20260506121841 | 48 | 319 | 2.0 | 0.0 | 0.00 | 0.00 | 0.00 | 71 | 1015.7 |
| 20260506121335 | 48 | 316 | 3.0 | 0.0 | 0.00 | 0.00 | 0.00 | 71 | 1015.7 |
| 20260506120829 | 48 | 321 | 2.0 | 0.0 | 0.00 | 0.00 | 0.00 | 72 | 1015.8 |
| 20260506120323 | 48 | 318 | 2.0 | 0.0 | 0.00 | 0.00 | 0.00 | 72 | 1015.8 |
| 20260506115817 | 48 | 314 | 2.0 | 0.0 | 0.00 | 0.00 | 0.00 | 72 | 1015.8 |
| 20260506115311 | 48 | 321 | 2.0 | 0.0 | 0.00 | 0.00 | 0.00 | 72 | 1015.7 |
| 20260506114805 | 48 | 314 | 3.0 | 0.0 | 0.00 | 0.00 | 0.00 | 72 | 1015.7 |
| 20260506114259 | 48 | 316 | 2.0 | 0.0 | 0.00 | 0.00 | 0.00 | 72 | 1015.7 |
| 20260506113753 | 48 | 314 | 2.0 | 0.0 | 0.00 | 0.00 | 0.00 | 72 | 1015.8 |
| 20260506113247 | 48 | 317 | 4.0 | 0.0 | 0.00 | 0.00 | 0.00 | 72 | 1015.7 |
| 20260506112741 | 48 | 317 | 3.0 | 0.0 | 0.00 | 0.00 | 0.00 | 72 | 1015.7 |
| 20260506112235 | 48 | 320 | 2.0 | 0.0 | 0.00 | 0.00 | 0.00 | 72 | 1015.7 |
| 20260506111729 | 48 | 322 | 2.0 | 0.0 | 0.00 | 0.00 | 0.00 | 72 | 1015.7 |
| 20260506111223 | 48 | 320 | 2.0 | 0.0 | 0.00 | 0.00 | 0.00 | 72 | 1015.7 |
| 20260506110717 | 48 | 315 | 1.0 | 0.0 | 0.00 | 0.00 | 0.00 | 72 | 1015.6 |
| 20260506110211 | 48 | 315 | 2.0 | 0.0 | 0.00 | 0.00 | 0.00 | 72 | 1015.6 |
| 20260506105705 | 48 | 319 | 2.0 | 0.0 | 0.00 | 0.00 | 0.00 | 72 | 1015.6 |
| 20260506105159 | 48 | 315 | 1.0 | 0.0 | 0.00 | 0.00 | 0.00 | 72 | 1015.7 |
| 20260506104653 | 48 | 316 | 2.0 | 0.0 | 0.00 | 0.00 | 0.00 | 72 | 1015.7 |
| 20260506104147 | 48 | 328 | 1.0 | 0.0 | 0.00 | 0.00 | 0.00 | 72 | 1015.6 |
| 20260506103641 | 48 | 292 | 1.0 | 0.0 | 0.00 | 0.00 | 0.00 | 72 | 1015.6 |
| 20260506103135 | 48 | 293 | 4.0 | 0.0 | 0.00 | 0.00 | 0.00 | 72 | 1015.6 |
| 20260506102629 | 48 | 286 | 5.0 | 0.0 | 0.00 | 0.00 | 0.00 | 72 | 1015.7 |
| 20260506102123 | 48 | 274 | 2.0 | 0.0 | 0.00 | 0.00 | 0.00 | 72 | 1015.7 |
| 20260506101617 | 48 | 189 | 0.0 | 0.0 | 0.00 | 0.00 | 0.00 | 72 | 1015.7 |
| 20260506101111 | 48 | 268 | 1.0 | 0.0 | 0.00 | 0.00 | 0.00 | 72 | 1015.6 |
| 20260506100605 | 48 | 269 | 4.0 | 11.0 | 0.00 | 0.00 | 0.00 | 72 | 1015.5 |
| 20260506100059 | 48 | 257 | 2.0 | 12.0 | 0.00 | 0.00 | 0.00 | 72 | 1015.6 |
| 20260506095553 | 49 | 254 | 3.0 | 14.0 | 0.00 | 0.00 | 0.00 | 72 | 1015.6 |
| 20260506095047 | 49 | 265 | 5.0 | 16.0 | 0.00 | 0.00 | 0.00 | 72 | 1015.6 |
| 20260506094541 | 49 | 275 | 11.0 | 17.0 | 0.00 | 0.00 | 0.00 | 72 | 1015.5 |
| 20260506094035 | 49 | 281 | 14.0 | 19.0 | 0.00 | 0.00 | 0.00 | 73 | 1015.5 |
| 20260506093529 | 49 | 281 | 14.0 | 19.0 | 0.00 | 0.00 | 0.00 | 73 | 1015.6 |
| 20260506093023 | 49 | 282 | 15.0 | 20.0 | 0.00 | 0.00 | 0.00 | 73 | 1015.5 |
| 20260506092517 | 49 | 278 | 11.0 | 20.0 | 0.00 | 0.00 | 0.00 | 73 | 1015.6 |
| 20260506092011 | 49 | 281 | 12.0 | 22.0 | 0.00 | 0.00 | 0.00 | 73 | 1015.6 |
| 20260506091505 | 49 | 285 | 12.0 | 22.0 | 0.00 | 0.00 | 0.00 | 73 | 1015.6 |
| 20260506090959 | 49 | 286 | 12.0 | 18.0 | 0.00 | 0.00 | 0.00 | 73 | 1015.6 |
| 20260506090453 | 49 | 290 | 8.0 | 18.0 | 0.00 | 0.00 | 0.00 | 73 | 1015.7 |
| 20260506085947 | 49 | 291 | 10.0 | 19.0 | 0.00 | 0.00 | 0.00 | 73 | 1015.7 |
| 20260506085441 | 49 | 288 | 9.0 | 19.0 | 0.00 | 0.00 | 0.00 | 73 | 1015.9 |
| 20260506084935 | 49 | 285 | 8.0 | 20.0 | 0.00 | 0.00 | 0.00 | 73 | 1015.8 |
| 20260506084429 | 49 | 285 | 12.0 | 21.0 | 0.00 | 0.00 | 0.00 | 73 | 1015.9 |
| 20260506083923 | 49 | 286 | 11.0 | 16.0 | 0.00 | 0.00 | 0.00 | 73 | 1015.8 |
| 20260506083417 | 49 | 287 | 9.0 | 19.0 | 0.00 | 0.00 | 0.00 | 73 | 1015.8 |
| 20260506082911 | 49 | 288 | 12.0 | 19.0 | 0.00 | 0.00 | 0.00 | 73 | 1015.8 |
| 20260506082405 | 49 | 290 | 13.0 | 19.0 | 0.00 | 0.00 | 0.00 | 73 | 1015.7 |
| 20260506081859 | 49 | 295 | 10.0 | 18.0 | 0.00 | 0.00 | 0.00 | 73 | 1015.8 |
| 20260506081353 | 49 | 286 | 9.0 | 18.0 | 0.00 | 0.00 | 0.00 | 73 | 1015.8 |
| 20260506080847 | 49 | 290 | 11.0 | 21.0 | 0.00 | 0.00 | 0.00 | 73 | 1015.8 |
| 20260506080341 | 49 | 289 | 13.0 | 20.0 | 0.00 | 0.00 | 0.00 | 73 | 1015.7 |
| 20260506073305 | 49 | 289 | 12.0 | 22.0 | 0.00 | 0.00 | 0.00 | 74 | 1015.8 |
| 20260506072759 | 49 | 290 | 10.0 | 20.0 | 0.00 | 0.00 | 0.00 | 74 | 1015.8 |
| 20260506072253 | 49 | 287 | 11.0 | 20.0 | 0.00 | 0.00 | 0.00 | 74 | 1015.7 |
| 20260506071747 | 49 | 290 | 13.0 | 19.0 | 0.00 | 0.00 | 0.00 | 74 | 1015.6 |
| 20260506071241 | 49 | 293 | 11.0 | 18.0 | 0.00 | 0.00 | 0.00 | 74 | 1015.7 |
| 20260506070735 | 49 | 290 | 11.0 | 17.0 | 0.00 | 0.00 | 0.00 | 74 | 1015.7 |
| 20260506070229 | 49 | 292 | 9.0 | 16.0 | 0.00 | 0.00 | 0.00 | 74 | 1015.6 |